When you browse on this site, cookies collect data to enhance your experience and personalize the content and advertising you see.
Visit our Privacy Policy to learn more. By continuing to use the site, you agree to this use of cookies and data.
  • In Switzerland
  • List of Countries
  • For 7 days
  • Water Temperature
  • Weather Map
  • Weather Widgets
  • user-avatar
    Login

    Hourly Weather Satif

    Today, 21 November, Thursday

    Time Temperature Precipitation Wind Pressure Humidity
    00:00 +5°C° 0 mm 5 mps 668 mmHg 64%
    01:00 +5°C° 0 mm 5 mps 668 mmHg 65%
    02:00 +4°C° 0 mm 4 mps 667 mmHg 65%
    03:00 +4°C° 0 mm 4 mps 667 mmHg 65%
    04:00 +4°C° 0 mm 4 mps 667 mmHg 65%
    05:00 +4°C° 0 mm 4 mps 667 mmHg 65%
    06:00 +4°C° 0 mm 4 mps 668 mmHg 66%
    07:00 +5°C° 0.1 mm 4 mps 668 mmHg 65%
    08:00 +6°C° 0.1 mm 4 mps 668 mmHg 64%
    09:00 +7°C° 0.1 mm 4 mps 669 mmHg 63%
    10:00 +8°C° 0 mm 5 mps 669 mmHg 60%
    11:00 +9°C° 0 mm 6 mps 669 mmHg 57%
    12:00 +10°C° 0 mm 7 mps 669 mmHg 54%
    13:00 +10°C° 0 mm 7 mps 669 mmHg 54%
    14:00 +10°C° 0 mm 7 mps 669 mmHg 54%
    15:00 +10°C° 0 mm 6 mps 668 mmHg 54%
    16:00 +9°C° 0 mm 5 mps 668 mmHg 58%
    17:00 +8°C° 0 mm 4 mps 668 mmHg 62%
    18:00 +8°C° 0 mm 2 mps 668 mmHg 67%
    19:00 +7°C° 0 mm 2 mps 668 mmHg 66%
    20:00 +7°C° 0 mm 2 mps 668 mmHg 66%
    21:00 +7°C° 0 mm 2 mps 669 mmHg 66%
    22:00 +7°C° 0 mm 2 mps 668 mmHg 64%
    23:00 +7°C° 0 mm 3 mps 668 mmHg 63%

    Tomorrow, 22 November, Friday

    Time Temperature Precipitation Wind Pressure Humidity
    00:00 +7°C° 0 mm 3 mps 668 mmHg 62%
    01:00 +7°C° 0 mm 3 mps 668 mmHg 60%
    02:00 +7°C° 0 mm 3 mps 667 mmHg 58%
    03:00 +5°C° 0 mm 3 mps 667 mmHg 56%
    04:00 +5°C° 0 mm 3 mps 667 mmHg 56%
    05:00 +5°C° 0 mm 3 mps 667 mmHg 55%
    06:00 +5°C° 0 mm 3 mps 667 mmHg 55%
    07:00 +7°C° 0 mm 4 mps 668 mmHg 51%
    08:00 +8°C° 0 mm 4 mps 668 mmHg 48%
    09:00 +9°C° 0 mm 5 mps 669 mmHg 44%
    10:00 +10°C° 0 mm 6 mps 668 mmHg 42%
    11:00 +11°C° 0 mm 7 mps 668 mmHg 40%
    12:00 +12°C° 0 mm 8 mps 668 mmHg 37%
    13:00 +11°C° 0 mm 8 mps 667 mmHg 39%
    14:00 +11°C° 0 mm 8 mps 667 mmHg 40%
    15:00 +10°C° 0 mm 8 mps 666 mmHg 41%
    16:00 +9°C° 0 mm 7 mps 666 mmHg 43%
    17:00 +8°C° 0 mm 6 mps 665 mmHg 45%
    18:00 +7°C° 0 mm 4 mps 665 mmHg 47%
    19:00 +8°C° 0 mm 7 mps 665 mmHg 45%
    20:00 +7°C° 0 mm 9 mps 665 mmHg 42%
    21:00 +7°C° 0 mm 11 mps 666 mmHg 40%
    22:00 +7°C° 0 mm 11 mps 665 mmHg 42%
    23:00 +5°C° 0 mm 12 mps 665 mmHg 45%

    Day after tomorrow, 23 November, Saturday

    Time Temperature Precipitation Wind Pressure Humidity
    00:00 +5°C° 0 mm 12 mps 664 mmHg 47%
    01:00 +6°C° 0.1 mm 11 mps 664 mmHg 56%
    02:00 +4°C° 0.1 mm 11 mps 663 mmHg 65%
    03:00 +5°C° 0.1 mm 10 mps 663 mmHg 74%
    04:00 +5°C° 0.8 mm 10 mps 662 mmHg 76%
    05:00 +5°C° 0.8 mm 9 mps 662 mmHg 78%
    06:00 +5°C° 0.8 mm 8 mps 662 mmHg 81%
    07:00 +5°C° 2 mm 8 mps 662 mmHg 81%
    08:00 +5°C° 2 mm 8 mps 662 mmHg 82%
    09:00 +5°C° 2 mm 8 mps 663 mmHg 82%
    10:00 +5°C° 0.3 mm 8 mps 662 mmHg 80%
    11:00 +6°C° 0.3 mm 9 mps 662 mmHg 78%
    12:00 +6°C° 0.3 mm 9 mps 662 mmHg 76%
    13:00 +6°C° 0 mm 9 mps 662 mmHg 73%
    14:00 +7°C° 0 mm 10 mps 662 mmHg 71%
    15:00 +7°C° 0 mm 10 mps 661 mmHg 68%
    16:00 +6°C° 0.1 mm 9 mps 662 mmHg 72%
    17:00 +5°C° 0.1 mm 8 mps 662 mmHg 76%
    18:00 +4°C° 0.1 mm 7 mps 662 mmHg 80%
    19:00 +4°C° 0.7 mm 7 mps 662 mmHg 82%
    20:00 +3°C° 0.7 mm 6 mps 663 mmHg 84%
    21:00 +3°C° 0.7 mm 5 mps 663 mmHg 87%
    22:00 +3°C° 0.3 mm 5 mps 663 mmHg 85%
    23:00 +3°C° 0.3 mm 5 mps 663 mmHg 84%

    24 November, Sunday

    Time Temperature Precipitation Wind Pressure Humidity
    00:00 +3°C° 0.3 mm 5 mps 663 mmHg 82%
    01:00 +4°C° 0 mm 4 mps 663 mmHg 84%
    02:00 +3°C° 0 mm 4 mps 663 mmHg 85%
    03:00 +3°C° 0 mm 3 mps 663 mmHg 87%
    04:00 +3°C° 0.1 mm 4 mps 664 mmHg 87%
    05:00 +3°C° 0.1 mm 4 mps 664 mmHg 88%
    06:00 +3°C° 0.1 mm 4 mps 664 mmHg 88%
    07:00 +3°C° 0.7 mm 5 mps 665 mmHg 88%
    08:00 +3°C° 0.7 mm 5 mps 666 mmHg 87%
    09:00 +4°C° 0.7 mm 6 mps 666 mmHg 87%
    10:00 +4°C° 0.4 mm 7 mps 667 mmHg 83%
    11:00 +5°C° 0.4 mm 7 mps 667 mmHg 79%
    12:00 +5°C° 0.4 mm 8 mps 667 mmHg 74%
    13:00 +5°C° 0.1 mm 8 mps 667 mmHg 74%
    14:00 +5°C° 0.1 mm 9 mps 667 mmHg 74%
    15:00 +5°C° 0.1 mm 9 mps 667 mmHg 74%
    16:00 +4°C° 0 mm 8 mps 668 mmHg 79%
    17:00 +4°C° 0 mm 7 mps 668 mmHg 84%
    18:00 +3°C° 0 mm 5 mps 668 mmHg 90%
    19:00 +3°C° 0 mm 5 mps 669 mmHg 91%
    20:00 +4°C° 0 mm 4 mps 669 mmHg 92%
    21:00 +3°C° 0 mm 3 mps 669 mmHg 94%
    22:00 +3°C° 0 mm 3 mps 669 mmHg 94%
    23:00 +3°C° 0 mm 3 mps 669 mmHg 95%

    25 November, Monday

    Time Temperature Precipitation Wind Pressure Humidity
    00:00 +3°C° 0 mm 3 mps 669 mmHg 95%
    01:00 +3°C° 0 mm 3 mps 669 mmHg 95%
    02:00 +4°C° 0 mm 2 mps 669 mmHg 96%
    03:00 +3°C° 0 mm 2 mps 669 mmHg 96%
    04:00 +3°C° 0 mm 2 mps 669 mmHg 96%
    05:00 +3°C° 0 mm 2 mps 670 mmHg 95%
    06:00 +3°C° 0 mm 2 mps 670 mmHg 94%
    07:00 +4°C° 0 mm 2 mps 670 mmHg 90%
    08:00 +5°C° 0 mm 2 mps 671 mmHg 86%
    09:00 +5°C° 0 mm 2 mps 671 mmHg 82%
    10:00 +6°C° 0 mm 2 mps 672 mmHg 75%
    11:00 +7°C° 0 mm 2 mps 672 mmHg 69%
    12:00 +8°C° 0 mm 3 mps 672 mmHg 62%
    13:00 +9°C° 0 mm 2 mps 672 mmHg 62%
    14:00 +9°C° 0 mm 2 mps 672 mmHg 61%
    15:00 +9°C° 0 mm 2 mps 672 mmHg 61%
    16:00 +8°C° 0 mm 2 mps 672 mmHg 68%
    17:00 +8°C° 0 mm 1 mps 672 mmHg 75%
    18:00 +7°C° 0 mm 1 mps 672 mmHg 82%
    19:00 +7°C° 0 mm 1 mps 672 mmHg 84%
    20:00 +5°C° 0 mm 0 mps 672 mmHg 86%
    21:00 +5°C° 0 mm 0 mps 672 mmHg 88%
    22:00 +4°C° 0 mm 0 mps 672 mmHg 88%
    23:00 +4°C° 0 mm 0 mps 672 mmHg 88%

    26 November, Tuesday

    Time Temperature Precipitation Wind Pressure Humidity
    00:00 +4°C° 0 mm 0 mps 672 mmHg 88%
    01:00 +5°C° 0 mm 1 mps 672 mmHg 88%
    02:00 +5°C° 0 mm 1 mps 672 mmHg 87%
    03:00 +4°C° 0 mm 1 mps 671 mmHg 86%
    04:00 +4°C° 0 mm 1 mps 671 mmHg 85%
    05:00 +4°C° 0 mm 1 mps 672 mmHg 84%
    06:00 +4°C° 0 mm 1 mps 672 mmHg 83%
    07:00 +6°C° 0 mm 1 mps 672 mmHg 74%
    08:00 +8°C° 0 mm 1 mps 673 mmHg 66%
    09:00 +10°C° 0 mm 1 mps 674 mmHg 57%
    10:00 +11°C° 0 mm 1 mps 674 mmHg 55%
    11:00 +12°C° 0 mm 1 mps 674 mmHg 54%
    12:00 +13°C° 0 mm 2 mps 674 mmHg 52%
    13:00 +13°C° 0 mm 2 mps 674 mmHg 53%
    14:00 +13°C° 0 mm 2 mps 674 mmHg 55%
    15:00 +14°C° 0 mm 2 mps 673 mmHg 56%
    16:00 +12°C° 0 mm 1 mps 673 mmHg 63%
    17:00 +11°C° 0 mm 1 mps 673 mmHg 70%
    18:00 +8°C° 0 mm 0 mps 673 mmHg 77%
    19:00 +8°C° 0 mm 0 mps 673 mmHg 77%
    20:00 +9°C° 0 mm 1 mps 673 mmHg 78%
    21:00 +9°C° 0 mm 1 mps 673 mmHg 78%
    22:00 +9°C° 0 mm 1 mps 673 mmHg 79%
    23:00 +8°C° 0 mm 1 mps 673 mmHg 79%
    Show more